sat.trackr.live / text

‹ back to catalog

STARLINK-30375

NORAD 57732 · 2023-131A

PAYLOAD ACTIVE UNKNOWN

§ Identity

Operator
Country
US
Launch date
2023-09-01
Launch site
AFETR
Launch vehicle
Mass (kg)
RCS (m²)

Purposes: comms

External: N2YO · Heavens-Above · Gunter

§ Orbital elements

Epoch: 2026-05-25T03:28:08.140224Z

Period
94.27 min
Inclination
43.0037°
Eccentricity
0.0000915
Mean motion
15.27570370 rev/d
Perigee alt
482.5 km
Apogee alt
483.7 km
Semi-major
6,861.2 km
B*
1.1695e-5
RAAN
85.8251°
Arg perigee
265.9211°
Mean anomaly
94.1536°
Rev number
15,179

§ Raw data

STARLINK-303751 57732U 23131A   26145.14453866  .00000060  00000+0  11695-4 0  99902 57732  43.0037  85.8251 0000915 265.9211  94.1536 15.27570370151791

JSON: /api/v1/satellites/57732 · /tle

For live sub-satellite position, see the globe view (requires WebGL).

§ Visibility from observer

Set your observer location to see the next 7 days of passes ≥ 10°. The values pass through the URL so the page stays shareable.

No JS? Fill the form by hand. The geolocation button needs JavaScript.